User: anonymous   Login
Location: Wildlife_Club
(35.6000°N, 81.4330°W)
Time: 04:47:01
(UTC-04:00)
Language:

Cosmos 1782 - Orbit

View from above orbital plane
View from above orbital plane
View from above satellite
View from above satellite

Ground track
Ground track

The orbit data is extracted from the following two-line orbital elements,

1 16986U 86074A   16269.41454688  .00000521  00000-0  33461-4 0  9998
2 16986  82.5101  18.7391 0012112 159.7859 200.3850 15.06261850630998
Epoch (UTC): 25 September 2016 09:56:56
Eccentricity: 0.0012112
inclination: 82.5101°
perigee height: 539 km
apogee height: 556 km
right ascension of ascending node: 18.7391°
argument of perigee: 159.7859°
revolutions per day: 15.06261850
mean anomaly at epoch: 200.3850°
orbit number at epoch: 63099

The dashed part of the orbit path shows where the satellite is in the earth's shadow,  

DLR